Regional Weather Roundup
Issued by NWS

Home | Current Version | Previous Version | Graphics & Text | Print | Product List | Glossary On
Versions: 1 2 3 4 5 6 7 8 9 10 11 12 13 14 15 16 17 18 19 20 21 22 23 24 25 26 27 28 29 30 31 32 33 34 35 36 37 38 39 40 41 42 43 44 45 46 47 48 49 50
000
ASUS44 KMEG 260300
RWRTN
TENNESSEE HOURLY STATE WEATHER ROUNDUP
NATIONAL WEATHER SERVICE MEMPHIS TN
1000 PM CDT MON JUL 25 2016

TNZ002-004-019-021-049-052-054-088>092-260400-
WEST TENNESSEE

CITY           SKY/WX    TMP DP  RH WIND       PRES   REMARKS
MEMPHIS INTL   PTCLDY    85  75  72 E5        29.98R HX  93
NWS MEMPHIS      N/A     79 N/A N/A MISG        N/A
JACKSON        CLEAR     76  75  97 CALM      29.99R
DYERSBURG      CLEAR    N/A N/A N/A MISG        N/A
UNION CITY     CLEAR     75  75 100 CALM      29.99R
PARIS          CLEAR     73  72  94 CALM      30.01R
LEXINGTON      CLEAR     75  72  88 N5        30.00R
$$

TNZ008-025-027-028-033-062-065-066-260400-
NORTH MIDDLE TENNESSEE

CITY           SKY/WX    TMP DP  RH WIND       PRES   REMARKS
NASHVILLE      MOCLDY    82  73  74 N7        30.01S
CLARKSVILLE    CLOUDY    74  71  91 S3        30.00R
COOKEVILLE     CLEAR     79  75  89 CALM      30.03F
CROSSVILLE     CLOUDY    76  71  85 CALM      30.10S
$$

TNZ061-075-076-078-094-096-097-260400-
SOUTH MIDDLE TENNESSEE

CITY           SKY/WX    TMP DP  RH WIND       PRES   REMARKS
TULLAHOMA      CLEAR     81  75  83 N5        30.05R
WINCHESTER     CLEAR     79  73  83 CALM      30.03S
MCMINNVILLE    CLEAR     82  77  83 CALM      30.04S HX  91
COLUMBIA       CLEAR     82  82 100 CALM      30.00S HX  97
SHELBYVILLE    CLEAR     81  75  83 CALM      30.03R
$$

TNZ017-018-042-046-047-260400-
NORTHEAST TENNESSEE

CITY           SKY/WX    TMP DP  RH WIND       PRES   REMARKS
TRI CITIES     CLOUDY    79  70  74 VRB3      30.09R
$$

TNZ012-013-036-069-073-074-260400-
CENTRAL EAST TENNESSEE

CITY           SKY/WX    TMP DP  RH WIND       PRES   REMARKS
KNOXVILLE      MOCLDY    83  69  62 S5        30.04R
OAK RIDGE      PTCLDY    84  71  65 CALM      30.05R
GATLINBURG     CLOUDY    82  72  69 SW6       30.06R
$$

TNZ083-085-099-260400-
SOUTHEAST TENNESSEE

CITY           SKY/WX    TMP DP  RH WIND       PRES   REMARKS
CHATTANOOGA    MOCLDY    79  73  82 S3        30.03R
$$

SKY/WX REPORTED AS FAIR MEANS FEW OR NO CLOUDS BELOW
12 THOUSAND FEET.





USA.gov is the U.S. government's official web portal to all federal, state and local government web resources and services.